Regional Weather Roundup
Issued by NWS

Home | Current Version | Previous Version | Graphics & Text | Print | Product List | Glossary On
Versions: 1 2 3 4 5 6 7 8 9 10 11 12 13 14 15 16 17 18 19 20 21 22 23 24 25 26 27 28 29 30 31 32 33 34 35 36 37 38 39 40 41 42 43 44 45 46 47 48 49 50
000
ASUS43 KLMK 242110
RWRKY
KENTUCKY REGIONAL WEATHER ROUNDUP
NATIONAL WEATHER SERVICE LOUISVILLE KY
500 PM EDT WED MAY 24 2017

NOTE "FAIR" INDICATES FEW OR NO CLOUDS BELOW 12,000 FEET
WITH NO SIGNIFICANT WEATHER AND/OR OBSTRUCTIONS TO VISIBILITY.

KYZ001>023-026-027-061>063-070>075-242200-
WESTERN AND SOUTH CENTRAL KENTUCKY

CITY           SKY/WX    TMP DP  RH WIND       PRES   REMARKS
PADUCAH        PTSUNNY   68  47  46 NW10      29.50F
HENDERSON      LGT RAIN  59  56  89 NW8       29.50S
OWENSBORO      LGT RAIN  59  56  89 NW18      29.47S FOG
HOPKINSVILLE   CLOUDY    61  54  79 NW8       29.52R
BOWLING GREEN  CLOUDY    58  55  90 W15G23    29.46R
GLASGOW        LGT RAIN  58  58 100 W14G23    29.42R
$$

KYZ024-025-028>034-038-045-046-053-242200-
NORTH CENTRAL KENTUCKY

CITY           SKY/WX    TMP DP  RH WIND       PRES   REMARKS
LOUISVILLE/SDF LGT RAIN  62  59  90 NW14      29.38F
LOUISVILLE/LOU LGT RAIN  63  59  87 NW15      29.38F
FORT KNOX      LGT RAIN  59  57  94 W15       29.38S
$$

KYZ035>037-039>044-047>052-055>060-089>105-242200-
NORTHEAST KENTUCKY

CITY           SKY/WX    TMP DP  RH WIND       PRES   REMARKS
LEXINGTON      RAIN      65  61  87 SE5       29.37F FOG
COVINGTON      LGT RAIN  64  63  96 NW7       29.36F
FRANKFORT      LGT RAIN  68  59  73 SE9       29.35F
$$

KYZ054-064>069-076>088-106>120-242200-
SOUTHEAST KENTUCKY

CITY           SKY/WX    TMP DP  RH WIND       PRES   REMARKS
JACKSON        PTSUNNY   68  61  78 VRB6      29.42F
LONDON         CLOUDY    69  55  60 S10G22    29.39S
SOMERSET       CLOUDY    61  61 100 CALM      29.40F
MIDDLESBORO    CLOUDY    70  57  63 S8G17     29.43S
MONTICELLO     CLOUDY    65  60  84 SW8G17    29.40S
$$





USA.gov is the U.S. government's official web portal to all federal, state and local government web resources and services.